• In Russia
  • List of Countries
  • For 7 days
  • Water Temperature
  • Satellite Maps
  • Weather Map
  • Weather Widgets
  • user-avatar
    Login

    Hourly Weather Vratsa

    Today, 19 January, Saturday

    Time Temperature Precipitation Wind Pressure Humidity
    00:00 +2°C° 0.1 mm 1 mps 708 mmHg 77%
    01:00 +2°C° 0.1 mm 1 mps 708 mmHg 79%
    02:00 +1°C° 0 mm 2 mps 708 mmHg 82%
    03:00 +2°C° 0.1 mm 1 mps 708 mmHg 84%
    04:00 +2°C° 0.1 mm 1 mps 708 mmHg 85%
    05:00 +2°C° 0.1 mm 1 mps 708 mmHg 86%
    06:00 +2°C° 0.3 mm 1 mps 708 mmHg 87%
    07:00 +2°C° 0.3 mm 1 mps 708 mmHg 87%
    08:00 +2°C° 0 mm 1 mps 709 mmHg 87%
    09:00 +2°C° 0.4 mm 1 mps 709 mmHg 88%
    10:00 +3°C° 0.4 mm 1 mps 709 mmHg 89%
    11:00 +3°C° 0.4 mm 1 mps 709 mmHg 89%
    12:00 +3°C° 0.3 mm 1 mps 709 mmHg 89%
    13:00 +3°C° 0.3 mm 1 mps 709 mmHg 89%
    14:00 +3°C° 0.3 mm 2 mps 709 mmHg 90%
    15:00 +3°C° 0 mm 1 mps 709 mmHg 91%
    16:00 +2°C° 0 mm 1 mps 709 mmHg 93%
    17:00 +2°C° 0 mm 1 mps 709 mmHg 95%
    18:00 +1°C° 0 mm 1 mps 709 mmHg 95%
    19:00 +1°C° 0 mm 1 mps 709 mmHg 96%
    20:00 +1°C° 0 mm 1 mps 709 mmHg 97%
    21:00 +1°C° 0 mm 1 mps 709 mmHg 96%
    22:00 +1°C° 0 mm 1 mps 709 mmHg 96%
    23:00 0°C° 0 mm 1 mps 709 mmHg 96%

    Tomorrow, 20 January, Sunday

    Time Temperature Precipitation Wind Pressure Humidity
    00:00 0°C° 0.1 mm 1 mps 709 mmHg 96%
    01:00 0°C° 0.1 mm 1 mps 709 mmHg 96%
    02:00 0°C° 0.1 mm 1 mps 709 mmHg 96%
    03:00 0°C° 0.1 mm 1 mps 708 mmHg 96%
    04:00 0°C° 0.1 mm 1 mps 708 mmHg 96%
    05:00 0°C° 0.1 mm 1 mps 707 mmHg 96%
    06:00 0°C° 0 mm 1 mps 707 mmHg 96%
    07:00 0°C° 0 mm 1 mps 707 mmHg 96%
    08:00 0°C° 0 mm 1 mps 707 mmHg 96%
    09:00 +1°C° 0 mm 1 mps 707 mmHg 94%
    10:00 +2°C° 0 mm 1 mps 707 mmHg 92%
    11:00 +3°C° 0 mm 1 mps 707 mmHg 91%
    12:00 +3°C° 0 mm 1 mps 707 mmHg 89%
    13:00 +4°C° 0 mm 1 mps 707 mmHg 88%
    14:00 +5°C° 0 mm 1 mps 706 mmHg 87%
    15:00 +4°C° 0.1 mm 1 mps 706 mmHg 89%
    16:00 +3°C° 0.1 mm 1 mps 706 mmHg 92%
    17:00 +2°C° 0.1 mm 1 mps 706 mmHg 95%
    18:00 +2°C° 0.2 mm 1 mps 706 mmHg 96%
    19:00 +2°C° 0.2 mm 1 mps 706 mmHg 96%
    20:00 +1°C° 0.2 mm 1 mps 706 mmHg 97%
    21:00 0°C° 0 mm 0 mps 707 mmHg 96%
    22:00 0°C° 0 mm 0 mps 707 mmHg 96%
    23:00 0°C° 0 mm 0 mps 707 mmHg 96%

    Day after tomorrow, 21 January, Monday

    Time Temperature Precipitation Wind Pressure Humidity
    00:00 0°C° 0 mm 0 mps 707 mmHg 95%
    01:00 0°C° 0 mm 0 mps 707 mmHg 94%
    02:00 -1°C° 0 mm 0 mps 707 mmHg 93%
    03:00 -1°C° 0 mm 0 mps 707 mmHg 93%
    04:00 -1°C° 0 mm 0 mps 707 mmHg 92%
    05:00 0°C° 0 mm 1 mps 707 mmHg 91%
    06:00 0°C° 0 mm 1 mps 707 mmHg 91%
    07:00 0°C° 0 mm 1 mps 708 mmHg 91%
    08:00 0°C° 0 mm 1 mps 708 mmHg 90%
    09:00 0°C° 0 mm 0 mps 708 mmHg 87%
    10:00 +2°C° 0 mm 0 mps 708 mmHg 84%
    11:00 +3°C° 0 mm 0 mps 709 mmHg 81%
    12:00 +3°C° 0 mm 0 mps 709 mmHg 80%
    13:00 +4°C° 0 mm 1 mps 708 mmHg 79%
    14:00 +5°C° 0 mm 1 mps 708 mmHg 78%
    15:00 +4°C° 0.1 mm 1 mps 708 mmHg 82%
    16:00 +3°C° 0.1 mm 1 mps 708 mmHg 86%
    17:00 +3°C° 0.1 mm 1 mps 708 mmHg 89%
    18:00 +2°C° 0 mm 1 mps 708 mmHg 90%
    19:00 +2°C° 0 mm 1 mps 709 mmHg 91%
    20:00 +1°C° 0 mm 1 mps 709 mmHg 92%
    21:00 +1°C° 0 mm 1 mps 709 mmHg 92%
    22:00 +1°C° 0 mm 1 mps 709 mmHg 92%
    23:00 0°C° 0 mm 0 mps 709 mmHg 93%

    22 January, Tuesday

    Time Temperature Precipitation Wind Pressure Humidity
    00:00 +1°C° 0.1 mm 1 mps 708 mmHg 93%
    01:00 +1°C° 0.1 mm 1 mps 708 mmHg 94%
    02:00 0°C° 0.1 mm 1 mps 708 mmHg 95%
    03:00 0°C° 0.1 mm 1 mps 707 mmHg 95%
    04:00 0°C° 0.1 mm 1 mps 707 mmHg 95%
    05:00 0°C° 0.1 mm 1 mps 707 mmHg 95%
    06:00 0°C° 0 mm 1 mps 706 mmHg 95%
    07:00 0°C° 0 mm 1 mps 706 mmHg 95%
    08:00 0°C° 0 mm 1 mps 706 mmHg 95%
    09:00 +1°C° 0.1 mm 1 mps 706 mmHg 93%
    10:00 +1°C° 0.1 mm 1 mps 706 mmHg 91%
    11:00 +2°C° 0.1 mm 1 mps 705 mmHg 88%
    12:00 +3°C° 0.1 mm 1 mps 705 mmHg 87%
    13:00 +3°C° 0.1 mm 1 mps 704 mmHg 86%
    14:00 +4°C° 0.1 mm 1 mps 703 mmHg 85%
    15:00 +3°C° 0 mm 1 mps 703 mmHg 88%
    16:00 +2°C° 0 mm 1 mps 702 mmHg 90%
    17:00 +2°C° 0 mm 1 mps 702 mmHg 93%
    18:00 +2°C° 0.1 mm 1 mps 701 mmHg 94%
    19:00 +1°C° 0.1 mm 1 mps 701 mmHg 95%
    20:00 +1°C° 0.1 mm 1 mps 701 mmHg 95%
    21:00 +1°C° 0.1 mm 1 mps 700 mmHg 96%
    22:00 +1°C° 0.1 mm 1 mps 700 mmHg 96%
    23:00 +1°C° 0.1 mm 1 mps 700 mmHg 96%

    23 January, Wednesday

    Time Temperature Precipitation Wind Pressure Humidity
    00:00 +1°C° 0 mm 1 mps 699 mmHg 95%
    01:00 +1°C° 0 mm 1 mps 699 mmHg 95%
    02:00 0°C° 0 mm 0 mps 698 mmHg 95%
    03:00 -1°C° 0 mm 0 mps 698 mmHg 95%
    04:00 -1°C° 0 mm 0 mps 697 mmHg 96%
    05:00 -1°C° 0 mm 0 mps 697 mmHg 96%
    06:00 -1°C° 0.1 mm 0 mps 697 mmHg 96%
    07:00 +1°C° 0.1 mm 1 mps 697 mmHg 96%
    08:00 +1°C° 0.1 mm 1 mps 697 mmHg 96%
    09:00 +2°C° 0 mm 1 mps 697 mmHg 94%
    10:00 +2°C° 0 mm 1 mps 697 mmHg 92%
    11:00 +3°C° 0 mm 1 mps 697 mmHg 90%
    12:00 +4°C° 0 mm 1 mps 697 mmHg 88%
    13:00 +5°C° 0 mm 1 mps 697 mmHg 87%
    14:00 +5°C° 0 mm 1 mps 697 mmHg 85%
    15:00 +5°C° 0.1 mm 1 mps 697 mmHg 88%
    16:00 +4°C° 0.1 mm 1 mps 697 mmHg 91%
    17:00 +3°C° 0.1 mm 1 mps 697 mmHg 94%
    18:00 +3°C° 0 mm 1 mps 697 mmHg 94%
    19:00 +2°C° 0 mm 1 mps 698 mmHg 95%
    20:00 +2°C° 0 mm 1 mps 698 mmHg 96%
    21:00 +2°C° 0 mm 1 mps 698 mmHg 96%
    22:00 +2°C° 0 mm 1 mps 698 mmHg 96%
    23:00 +2°C° 0 mm 1 mps 699 mmHg 97%

    24 January, Thursday

    Time Temperature Precipitation Wind Pressure Humidity
    00:00 +2°C° 0.1 mm 1 mps 699 mmHg 97%
    01:00 +1°C° 0.1 mm 2 mps 699 mmHg 97%
    02:00 -1°C° 0.1 mm 2 mps 699 mmHg 97%
    03:00 -1°C° 0.1 mm 2 mps 699 mmHg 96%
    04:00 -1°C° 0.1 mm 2 mps 699 mmHg 96%
    05:00 -1°C° 0.1 mm 2 mps 698 mmHg 96%
    06:00 -2°C° 0.4 mm 2 mps 699 mmHg 96%
    07:00 -2°C° 0.4 mm 2 mps 699 mmHg 96%
    08:00 -3°C° 0.4 mm 2 mps 699 mmHg 96%
    09:00 -3°C° 0.3 mm 2 mps 698 mmHg 95%
    10:00 -3°C° 0.3 mm 2 mps 698 mmHg 95%
    11:00 -3°C° 0.3 mm 2 mps 698 mmHg 94%
    12:00 -3°C° 1 mm 2 mps 698 mmHg 94%
    13:00 -4°C° 1 mm 2 mps 697 mmHg 95%
    14:00 -4°C° 1 mm 2 mps 697 mmHg 96%
    15:00 -4°C° 1.2 mm 2 mps 697 mmHg 96%
    16:00 -5°C° 1.2 mm 2 mps 697 mmHg 96%
    17:00 -5°C° 1.2 mm 2 mps 697 mmHg 97%
    18:00 -5°C° 0.9 mm 2 mps 697 mmHg 97%
    19:00 -3°C° 0.9 mm 1 mps 697 mmHg 97%
    20:00 -3°C° 0.9 mm 1 mps 698 mmHg 97%
    21:00 -3°C° 0.2 mm 1 mps 698 mmHg 97%
    22:00 -4°C° 0.2 mm 1 mps 698 mmHg 97%
    23:00 -4°C° 0.2 mm 1 mps 698 mmHg 97%
    Show more